Terminal Aerodrome Forecast
Issued by NWS

Home | Current Version | Previous Version | Text Only | Print | Product List | Glossary On
Versions: 1 2 3 4 5 6 7 8 9 10 11 12 13 14 15 16 17 18 19 20 21 22 23
000
FTUS42 KTAE 221100
TAFECP
TAF
KECP 221120Z 2212/2312 12005KT P6SM SCT025
     FM221800 20008KT P6SM SCT040
     FM230000 21004KT P6SM SCT040=

USA.gov is the U.S. government's official web portal to all federal, state and local government web resources and services.